When you browse on this site, cookies collect data to enhance your experience and personalize the content and advertising you see.
Visit our Privacy Policy to learn more. By continuing to use the site, you agree to this use of cookies and data.
  • In Spain
  • List of Countries
  • For 7 days
  • Water Temperature
  • Weather Map
  • Weather Widgets
  • user-avatar
    Login

    Hourly Weather Phohan

    Today, 7 June, Sunday

    Time Temperature Precipitation Wind Pressure Humidity
    00:00 +16°C° 0 mm 1 mps 755 mmHg 80%
    01:00 +16°C° 0 mm 1 mps 755 mmHg 80%
    02:00 +16°C° 0 mm 1 mps 754 mmHg 79%
    03:00 +16°C° 0 mm 1 mps 755 mmHg 76%
    04:00 +16°C° 0 mm 1 mps 755 mmHg 76%
    05:00 +16°C° 0 mm 1 mps 755 mmHg 75%
    06:00 +16°C° 0 mm 0 mps 756 mmHg 75%
    07:00 +18°C° 0 mm 0 mps 756 mmHg 65%
    08:00 +23°C° 0 mm 1 mps 756 mmHg 56%
    09:00 +25°C° 0 mm 1 mps 756 mmHg 47%
    10:00 +26°C° 0 mm 2 mps 756 mmHg 44%
    11:00 +27°C° 0 mm 2 mps 755 mmHg 41%
    12:00 +28°C° 0 mm 3 mps 755 mmHg 38%
    13:00 +29°C° 0 mm 3 mps 755 mmHg 39%
    14:00 +29°C° 0 mm 3 mps 755 mmHg 39%
    15:00 +29°C° 0 mm 3 mps 754 mmHg 39%
    16:00 +27°C° 0 mm 3 mps 754 mmHg 42%
    17:00 +26°C° 0 mm 3 mps 755 mmHg 46%
    18:00 +25°C° 0 mm 2 mps 755 mmHg 50%
    19:00 +23°C° 0 mm 2 mps 755 mmHg 54%
    20:00 +21°C° 0 mm 2 mps 755 mmHg 58%
    21:00 +20°C° 0 mm 1 mps 755 mmHg 63%
    22:00 +19°C° 0 mm 1 mps 755 mmHg 63%
    23:00 +19°C° 0 mm 1 mps 756 mmHg 62%

    Tomorrow, 8 June, Monday

    Time Temperature Precipitation Wind Pressure Humidity
    00:00 +19°C° 0 mm 1 mps 756 mmHg 62%
    01:00 +19°C° 0 mm 1 mps 756 mmHg 63%
    02:00 +19°C° 0 mm 1 mps 756 mmHg 63%
    03:00 +19°C° 0 mm 1 mps 756 mmHg 63%
    04:00 +19°C° 0 mm 1 mps 756 mmHg 65%
    05:00 +19°C° 0 mm 1 mps 756 mmHg 66%
    06:00 +20°C° 0 mm 1 mps 757 mmHg 68%
    07:00 +23°C° 0 mm 1 mps 757 mmHg 63%
    08:00 +26°C° 0 mm 1 mps 757 mmHg 58%
    09:00 +28°C° 0 mm 1 mps 757 mmHg 54%
    10:00 +30°C° 0 mm 2 mps 757 mmHg 49%
    11:00 +31°C° 0 mm 3 mps 757 mmHg 45%
    12:00 +34°C° 0 mm 4 mps 757 mmHg 41%
    13:00 +34°C° 0 mm 4 mps 757 mmHg 39%
    14:00 +34°C° 0 mm 4 mps 756 mmHg 38%
    15:00 +35°C° 0 mm 5 mps 756 mmHg 36%
    16:00 +33°C° 0 mm 4 mps 756 mmHg 39%
    17:00 +32°C° 0 mm 4 mps 756 mmHg 42%
    18:00 +30°C° 0 mm 4 mps 756 mmHg 44%
    19:00 +28°C° 0 mm 3 mps 756 mmHg 48%
    20:00 +26°C° 0 mm 3 mps 757 mmHg 52%
    21:00 +24°C° 0 mm 2 mps 757 mmHg 56%
    22:00 +23°C° 0 mm 2 mps 757 mmHg 57%
    23:00 +23°C° 0 mm 2 mps 757 mmHg 58%

    Day after tomorrow, 9 June, Tuesday

    Time Temperature Precipitation Wind Pressure Humidity
    00:00 +21°C° 0 mm 2 mps 757 mmHg 59%
    01:00 +21°C° 0 mm 2 mps 757 mmHg 60%
    02:00 +21°C° 0 mm 2 mps 757 mmHg 61%
    03:00 +20°C° 0 mm 2 mps 757 mmHg 62%
    04:00 +20°C° 0 mm 2 mps 757 mmHg 65%
    05:00 +20°C° 0 mm 2 mps 757 mmHg 68%
    06:00 +20°C° 0 mm 2 mps 757 mmHg 70%
    07:00 +24°C° 0 mm 2 mps 757 mmHg 64%
    08:00 +27°C° 0 mm 2 mps 757 mmHg 57%
    09:00 +30°C° 0 mm 2 mps 757 mmHg 50%
    10:00 +32°C° 0 mm 2 mps 757 mmHg 44%
    11:00 +34°C° 0 mm 3 mps 757 mmHg 39%
    12:00 +36°C° 0 mm 4 mps 757 mmHg 33%
    13:00 +36°C° 0 mm 4 mps 757 mmHg 33%
    14:00 +36°C° 0 mm 4 mps 756 mmHg 32%
    15:00 +36°C° 0 mm 5 mps 756 mmHg 31%
    16:00 +35°C° 0 mm 5 mps 755 mmHg 35%
    17:00 +33°C° 0 mm 4 mps 755 mmHg 40%
    18:00 +32°C° 0 mm 4 mps 755 mmHg 45%
    19:00 +28°C° 0 mm 4 mps 755 mmHg 52%
    20:00 +26°C° 0 mm 3 mps 756 mmHg 58%
    21:00 +24°C° 0 mm 3 mps 756 mmHg 65%
    22:00 +22°C° 0 mm 3 mps 756 mmHg 69%
    23:00 +21°C° 0 mm 3 mps 756 mmHg 72%

    10 June, Wednesday

    Time Temperature Precipitation Wind Pressure Humidity
    00:00 +21°C° 0 mm 2 mps 756 mmHg 76%
    01:00 +20°C° 0 mm 2 mps 756 mmHg 78%
    02:00 +20°C° 0 mm 2 mps 756 mmHg 79%
    03:00 +20°C° 0 mm 2 mps 756 mmHg 81%
    04:00 +21°C° 0 mm 1 mps 755 mmHg 80%
    05:00 +21°C° 0 mm 1 mps 755 mmHg 80%
    06:00 +21°C° 0 mm 1 mps 755 mmHg 79%
    07:00 +24°C° 0 mm 1 mps 755 mmHg 69%
    08:00 +27°C° 0 mm 1 mps 755 mmHg 60%
    09:00 +30°C° 0 mm 1 mps 755 mmHg 51%
    10:00 +31°C° 0 mm 2 mps 754 mmHg 46%
    11:00 +34°C° 0 mm 3 mps 754 mmHg 41%
    12:00 +35°C° 0 mm 3 mps 753 mmHg 36%
    13:00 +35°C° 0 mm 4 mps 753 mmHg 36%
    14:00 +35°C° 0 mm 4 mps 752 mmHg 37%
    15:00 +36°C° 0 mm 4 mps 752 mmHg 37%
    16:00 +34°C° 0 mm 4 mps 752 mmHg 44%
    17:00 +33°C° 0 mm 4 mps 751 mmHg 51%
    18:00 +30°C° 0 mm 4 mps 751 mmHg 58%
    19:00 +29°C° 0 mm 3 mps 751 mmHg 62%
    20:00 +27°C° 0 mm 3 mps 752 mmHg 66%
    21:00 +26°C° 0 mm 3 mps 752 mmHg 70%
    22:00 +25°C° 0 mm 3 mps 752 mmHg 70%
    23:00 +25°C° 0 mm 2 mps 751 mmHg 70%

    11 June, Thursday

    Time Temperature Precipitation Wind Pressure Humidity
    00:00 +25°C° 0 mm 2 mps 751 mmHg 70%
    01:00 +24°C° 0.1 mm 2 mps 751 mmHg 73%
    02:00 +24°C° 0.1 mm 2 mps 751 mmHg 76%
    03:00 +23°C° 0.1 mm 2 mps 751 mmHg 79%
    04:00 +23°C° 0 mm 2 mps 751 mmHg 81%
    05:00 +23°C° 0 mm 2 mps 751 mmHg 82%
    06:00 +23°C° 0 mm 2 mps 751 mmHg 83%
    07:00 +24°C° 0 mm 2 mps 751 mmHg 78%
    08:00 +25°C° 0 mm 3 mps 751 mmHg 73%
    09:00 +27°C° 0 mm 3 mps 751 mmHg 68%
    10:00 +28°C° 0 mm 3 mps 751 mmHg 63%
    11:00 +29°C° 0 mm 3 mps 751 mmHg 58%
    12:00 +30°C° 0 mm 4 mps 750 mmHg 53%
    13:00 +30°C° 0 mm 4 mps 750 mmHg 53%
    14:00 +32°C° 0 mm 4 mps 749 mmHg 53%
    15:00 +32°C° 0 mm 4 mps 749 mmHg 53%
    16:00 +30°C° 0 mm 3 mps 748 mmHg 56%
    17:00 +29°C° 0 mm 3 mps 748 mmHg 60%
    18:00 +29°C° 0 mm 3 mps 748 mmHg 64%
    19:00 +27°C° 0 mm 3 mps 748 mmHg 73%
    20:00 +25°C° 0 mm 3 mps 749 mmHg 82%
    21:00 +22°C° 0 mm 3 mps 749 mmHg 91%
    22:00 +23°C° 0 mm 2 mps 749 mmHg 92%
    23:00 +23°C° 0 mm 2 mps 749 mmHg 93%

    12 June, Friday

    Time Temperature Precipitation Wind Pressure Humidity
    00:00 +22°C° 0 mm 1 mps 749 mmHg 94%
    01:00 +22°C° 0 mm 1 mps 749 mmHg 93%
    02:00 +22°C° 0 mm 1 mps 749 mmHg 92%
    03:00 +22°C° 0 mm 1 mps 749 mmHg 91%
    04:00 +22°C° 0 mm 1 mps 749 mmHg 91%
    05:00 +23°C° 0 mm 2 mps 749 mmHg 91%
    06:00 +23°C° 0 mm 2 mps 749 mmHg 91%
    07:00 +25°C° 0 mm 2 mps 749 mmHg 83%
    08:00 +27°C° 0 mm 2 mps 749 mmHg 75%
    09:00 +29°C° 0 mm 2 mps 749 mmHg 68%
    10:00 +30°C° 0.1 mm 2 mps 749 mmHg 65%
    11:00 +30°C° 0.1 mm 3 mps 749 mmHg 63%
    12:00 +31°C° 0.1 mm 3 mps 749 mmHg 61%
    13:00 +30°C° 1.2 mm 3 mps 749 mmHg 67%
    14:00 +30°C° 1.2 mm 3 mps 748 mmHg 73%
    15:00 +29°C° 1.2 mm 3 mps 748 mmHg 79%
    16:00 +28°C° 7.2 mm 2 mps 747 mmHg 85%
    17:00 +26°C° 7.2 mm 2 mps 747 mmHg 91%
    18:00 +24°C° 7.2 mm 1 mps 746 mmHg 97%
    19:00 +24°C° 10.7 mm 2 mps 746 mmHg 97%
    20:00 +24°C° 10.7 mm 2 mps 746 mmHg 97%
    21:00 +24°C° 10.7 mm 2 mps 746 mmHg 98%
    22:00 +25°C° 1 mm 2 mps 746 mmHg 97%
    23:00 +25°C° 1 mm 2 mps 746 mmHg 97%
    Show more